TimeMST,TemperatureF,Dew PointF,Humidity,Sea Level PressureIn,VisibilityMPH,Wind Direction,Wind SpeedMPH,Gust SpeedMPH,PrecipitationIn,Events,Conditions,WindDirDegrees,DateUTC
12:15 AM,25.3,14.2,63,30.22,10.0,NNW,4.6,-,N/A,,Clear,340,2012-12-04 07:15:00
12:35 AM,25.7,14.7,63,30.21,10.0,North,3.5,-,N/A,,Clear,350,2012-12-04 07:35:00
12:55 AM,25.3,14.5,64,30.22,10.0,NNW,4.6,-,N/A,,Clear,330,2012-12-04 07:55:00
1:15 AM,23.7,14.0,66,30.22,10.0,WNW,3.5,-,N/A,,Clear,300,2012-12-04 08:15:00
1:55 AM,25.0,14.4,64,30.24,10.0,NNW,8.1,-,N/A,,Clear,330,2012-12-04 08:55:00
2:15 AM,26.4,14.4,60,30.24,10.0,North,9.2,-,N/A,,Clear,350,2012-12-04 09:15:00
2:35 AM,25.9,13.6,60,30.25,10.0,WSW,4.6,-,N/A,,Clear,240,2012-12-04 09:35:00
2:55 AM,21.7,14.0,72,30.25,10.0,Calm,Calm,-,N/A,,Clear,0,2012-12-04 09:55:00
3:15 AM,25.9,13.6,60,30.25,10.0,Calm,Calm,-,N/A,,Clear,0,2012-12-04 10:15:00
3:35 AM,25.2,11.8,57,30.25,10.0,SSE,3.5,-,N/A,,Clear,150,2012-12-04 10:35:00
3:55 AM,21.2,13.3,72,30.25,10.0,SW,4.6,-,N/A,,Clear,220,2012-12-04 10:55:00
4:15 AM,19.2,13.1,77,30.26,10.0,West,3.5,-,N/A,,Clear,280,2012-12-04 11:15:00
4:35 AM,21.7,14.0,72,30.26,10.0,West,8.1,-,N/A,,Clear,270,2012-12-04 11:35:00
4:55 AM,21.6,14.2,73,30.27,10.0,West,9.2,-,N/A,,Clear,270,2012-12-04 11:55:00
5:15 AM,20.3,14.0,77,30.28,10.0,West,8.1,-,N/A,,Clear,280,2012-12-04 12:15:00
5:35 AM,20.7,14.4,77,30.28,10.0,West,6.9,-,N/A,,Clear,280,2012-12-04 12:35:00
5:55 AM,20.1,14.7,80,30.30,10.0,West,8.1,-,N/A,,Clear,270,2012-12-04 12:55:00
6:15 AM,19.9,14.4,79,30.31,10.0,West,8.1,-,N/A,,Clear,260,2012-12-04 13:15:00
6:35 AM,18.5,13.8,82,30.31,10.0,West,10.4,-,N/A,,Clear,270,2012-12-04 13:35:00
6:55 AM,18.5,13.8,82,30.32,10.0,West,9.2,-,N/A,,Clear,270,2012-12-04 13:55:00
7:15 AM,18.5,14.0,83,30.33,10.0,West,9.2,-,N/A,,Clear,270,2012-12-04 14:15:00
7:35 AM,19.4,14.7,82,30.32,10.0,West,6.9,-,N/A,,Clear,270,2012-12-04 14:35:00
7:55 AM,21.9,16.5,80,30.32,10.0,West,6.9,-,N/A,,Clear,270,2012-12-04 14:55:00
8:15 AM,24.8,18.0,75,30.33,10.0,West,8.1,-,N/A,,Clear,270,2012-12-04 15:15:00
8:35 AM,27.0,18.5,70,30.33,10.0,West,5.8,-,N/A,,Clear,270,2012-12-04 15:35:00
8:55 AM,31.3,18.1,58,30.34,10.0,West,6.9,-,N/A,,Clear,270,2012-12-04 15:55:00
9:15 AM,34.9,15.4,45,30.34,10.0,West,8.1,-,N/A,,Clear,280,2012-12-04 16:15:00
9:35 AM,37.4,12.0,35,30.34,10.0,West,10.4,-,N/A,,Clear,270,2012-12-04 16:35:00
9:55 AM,37.6,13.5,37,30.35,10.0,West,6.9,-,N/A,,Clear,270,2012-12-04 16:55:00
10:15 AM,40.6,14.0,34,30.34,10.0,West,6.9,-,N/A,,Clear,280,2012-12-04 17:15:00
10:35 AM,42.3,12.7,30,30.33,10.0,WSW,4.6,-,N/A,,Clear,240,2012-12-04 17:35:00
10:55 AM,43.9,11.3,27,30.32,10.0,Calm,Calm,-,N/A,,Clear,0,2012-12-04 17:55:00
11:15 AM,45.1,11.1,25,30.30,10.0,Calm,Calm,-,N/A,,Clear,0,2012-12-04 18:15:00
11:35 AM,47.1,10.8,23,30.29,10.0,South,5.8,-,N/A,,Clear,170,2012-12-04 18:35:00
11:55 AM,47.8,12.2,24,30.28,10.0,South,5.8,-,N/A,,Clear,170,2012-12-04 18:55:00
12:15 PM,46.2,13.1,26,30.26,10.0,SSE,4.6,-,N/A,,Clear,150,2012-12-04 19:15:00
12:35 PM,46.6,15.1,28,30.26,10.0,SSE,5.8,-,N/A,,Clear,160,2012-12-04 19:35:00
12:55 PM,47.3,15.6,28,30.25,10.0,SSE,8.1,-,N/A,,Clear,150,2012-12-04 19:55:00
1:15 PM,48.6,16.5,28,30.24,10.0,SSE,4.6,-,N/A,,Clear,160,2012-12-04 20:15:00
1:35 PM,50.0,17.1,27,30.22,10.0,SE,4.6,-,N/A,,Clear,140,2012-12-04 20:35:00
1:55 PM,50.2,17.6,28,30.20,10.0,SSE,6.9,-,N/A,,Clear,150,2012-12-04 20:55:00
2:15 PM,50.0,16.9,27,30.19,10.0,SE,6.9,-,N/A,,Clear,140,2012-12-04 21:15:00
2:35 PM,50.9,17.2,26,30.19,10.0,SE,6.9,-,N/A,,Clear,140,2012-12-04 21:35:00
2:55 PM,49.8,17.2,27,30.19,10.0,SE,5.8,-,N/A,,Clear,140,2012-12-04 21:55:00
3:15 PM,51.1,17.8,27,30.18,10.0,SE,6.9,-,N/A,,Clear,140,2012-12-04 22:15:00
3:55 PM,48.0,18.1,31,30.17,10.0,ESE,4.6,-,N/A,,Clear,110,2012-12-04 22:55:00
4:15 PM,44.4,17.6,34,30.16,10.0,ESE,4.6,-,N/A,,Clear,110,2012-12-04 23:15:00
4:35 PM,42.4,18.0,37,30.16,10.0,ESE,3.5,-,N/A,,Clear,110,2012-12-04 23:35:00